www.pogodaiklimat.ru

Погода и климат >> Архив погоды >> Россия >> Магаданская область >> Мыс Алевина


ПОГОДА на Мысе Алевина

  • Прогноз погоды на Мысе Алевина
  • Монитор погоды на Мысе Алевина
  • Климат города

АРХИВ ПОГОДЫ на Мысе Алевина

Время (UTC), дата Ветер
(напр.,м/с)
 
Видим.   Явления Облачность Т
(С)
Тd
(С)
f
(%)
Тe
(С)
Тes
(С)
Комфортность P
(гПа)
Po
(гПа)
Тmin
(С)
Tmax
(С)
R
(мм)
R24
(мм)
S
(см)
06 17.05 ЮВ 10-12
{13}
4000 м туман местами 8/8 1000 м
[Sc]
+1.0 +0.2 94 -7 -7 1007.8 999.7
09 17.05 ЮВ 10-12
{13}
4000 м туман местами 10/10 1000 м
[Sc]
+0.4 +0.1 98 -8 -8 1007.7 999.6 +1.9
12 17.05 ЮВ 11-14
{14}
4000 м туман местами 8/8 1000 м
[Sc]
0.0 -0.6 96 -9 -9 1007.3 999.1
15 17.05 ЮВ 13-17
{18}
50 км 10/10 1000 м
[Sc]
-0.3 -0.9 96 -10 -10 1006.0 997.8
18 17.05 В 12-16
{17}
50 км в посл. час снег 10/10 1000 м
[Sc]
-0.4 -1.0 96 -10 -10 1005.3 997.1
21 17.05 ЮВ 11-15
{17}
10 км слабый снег 10/10 1000 м
[Sc]
-0.3 -0.6 98 -9 -9 1005.1 996.9 -0.5 0.2
00 18.05 В 11-15
{16}
20 км туман местами {снег} 10/10 300 м
[St]
0.0 -0.3 98 -9 -9 1004.6 996.4
03 18.05 В 11-15
{16}
20 км туман местами {снег} 10/10 300 м
[St]
0.0 -0.3 98 -9 -9 1004.6 996.4
06 18.05 В 12-15
{16}
10 км туман местами 10/10 300 м
[St]
+0.7 +0.4 98 -8 -8 1003.8 995.7
09 18.05 В 8-10
{15}
500 м сильный снег {морось} туман ?/? -0.1 -0.1 100 -8 -8 1003.3 995.1 +0.8 0.7
12 18.05 В 12-14
{14}
500 м ливневой снег туман ?/? -0.3 -0.3 100 -10 -10 1001.2 993.1
15 18.05 В 16-19
{19}
500 м ливневой снег {туман} туман ?/? -0.1 -0.1 100 -10 -10 998.3 990.7
18 18.05 В 15-18
{19}
500 м ливневой снег {туман} туман ?/? -0.2 -0.2 100 -10 -10 997.2 989.1
21 18.05 В 11-13
{18}
2000 м снег {ливн. осадки} 10/10 300 м
[St]
-0.1 -0.1 100 -9 -9 996.5 988.4 -0.4 8 11
00 19.05 ЮВ 8-10
{14}
500 м туман {снег} ?/? 0.0 0.0 100 -8 -8 996.8 988.7
03 19.05 ЮВ 3
{10}
500 м туман ?/? +0.1 +0.1 100 -5 -5 998.8 990.7
06 19.05 ЮВ 3 500 м туман ?/? +0.4 +0.4 100 -4 -4 999.3 991.3
09 19.05 Ю 3 2000 м туман местами 10/10 300 м
[St]
+0.2 +0.2 100 -5 -5 1000.3 992.2 +1.1 0.4
12 19.05 ЮВ 4 50 км {туман} 10/10 300 м
[St]
0.0 -0.3 98 -6 -6 1001.4 993.3
15 19.05 ЮВ 5 50 км 10/10 300 м
[St]
-0.2 -0.2 100 -7 -7 999.5 991.4
18 19.05 СВ 1 50 км 10/10 300 м
[St]
-0.3 -0.3 100 -3 -3 997.7 989.6
21 19.05 В 5
{10}
10 км туман местами 10/10 300 м
[St]
+0.1 +0.1 100 -6 -6 995.4 987.3 -0.4 6
00 20.05 СЗ 2 500 м снег {туман} туман ?/? 0.0 0.0 100 -4 -4 992.7 984.7
03 20.05 СЗ 3 500 м слабый снег {туман} туман ?/? +0.1 +0.1 100 -5 -5 990.0 982.0
06 20.05 С 2 500 м туман {снег} ?/? 0.0 0.0 100 -4 -4 988.1 980.1
09 20.05 С 11-14
{14}
50 км {туман} 10/10 600 м
[Cb cap]
+1.1 0.0 92 -7 -7 987.1 979.1 +1.4 1
12 20.05 СЗ 9-12
{17}
50 км {туман} 10/10 600 м
[Cb cap]
+1.2 +0.4 94 -6 -6 987.3 979.3
15 20.05 СЗ 6
{13}
50 км 10/10 1000 м
[Cb cap]
+1.5 +0.1 90 -5 -5 986.8 978.7
18 20.05 СЗ 8-10
{10}
50 км 10/10 1000 м
[Sc]
+1.9 0.0 87 -5 -5 986.4 978.4
21 20.05 СЗ 6
{10}
50 км 10/10 1000 м
[Sc]
+1.8 -0.4 85 -4 -4 987.0 979.0 +0.5 3
00 21.05 СЗ 3 50 км 10/10 1000 м
[Sc]
+2.8 -0.2 81 -1 -1 987.5 979.6
03 21.05 СЗ 3 50 км 10/10 1000 м
[Sc]
+3.2 0.0 80 -1 -1 988.0 980.3
06 21.05 СЗ 3 50 км 10/10 1000 м
[Sc]
+3.5 +0.6 81 -0 -0 988.7 980.8
09 21.05 З 2 50 км 10/10 1000 м
[Sc]
+1.8 +0.2 89 -2 -2 989.6 981.6 +4.2
12 21.05 В 5 10 км туман местами 10/10 1000 м
[Sc]
+1.0 +0.7 98 -5 -5 990.4 982.0
15 21.05 В 5 10 км слабый дождь 10/10 1000 м
[Sc]
+0.7 +0.4 98 -5 -5 991.0 983.0
18 21.05 В 1 50 км {дождь} 10/10 1000 м
[Sc]
+0.8 +0.3 96 -1 -1 991.5 983.5
21 21.05 СЗ 2 50 км 8/8 1000 м
[Sc]
+1.9 +1.4 96 -2 -1 992.4 984.4 +0.2 0.5
00 22.05 СЗ 3 50 км 9/9 1000 м
[Sc]
+3.0 +1.5 90 -1 -0 993.8 985.8
03 22.05 СЗ 3 50 км 10/10 600 м
[Cb cap]
+4.8 -0.2 70 +2 +2 995.2 987.3
06 22.05 ЮЗ 1 50 км 8/8 600 м
[Cb cap]
+5.2 0.0 69 +4 +6 997.2 989.3
09 22.05 ЮВ 2 50 км 10/10 1000 м
[Sc]
+4.0 0.0 75 +1 +1 999.9 991.9 +6.3
12 22.05 штиль 0 50 км 8/8 1000 м
[Sc]
+2.8 +1.0 88 +2 +2 1002.2 994.2
15 22.05 С 2 50 км 6/6 1000 м
[Sc]
+1.9 +0.8 92 -2 -2 1003.1 995.0
18 22.05 С 3 50 км 8/3 1000 м
[Sc Ac As]
+2.2 +0.6 89 -2 -2 1004.1 996.0
21 22.05 З 4 50 км 4/4 1000 м
[Sc]
+4.6 +1.0 77 +1 +2 1005.1 997.1 +1.4
00 23.05 В 1 50 км 4/4 600 м
[Cb cap]
+3.0 +0.9 86 +1 +10 опасность
простуды
1006.3 998.2
03 23.05 ЮЗ 3 50 км 6/3 600 м
[Cb cap Ci fib]
+5.2 +2.0 80 +2 +9 1007.5 999.5
06 23.05 З 3 50 км 4/4 1000 м
[Sc]
+5.0 +2.0 81 +2 +5 1008.9 1000.9
09 23.05 В 1 50 км 3/3 1000 м
[Sc]
+3.4 +2.4 93 +2 +2 1010.5 1002.4 +7.3
12 23.05 СЗ 3 50 км 3/3 1000 м
[Sc]
+2.3 +1.5 94 -2 -2 1012.3 1004.2
15 23.05 С 4 50 км ясно +2.1 +1.3 94 -3 -3 1012.9 1004.8
18 23.05 С 4 50 км ясно +2.7 +0.3 84 -2 -2 1013.6 1005.5
21 23.05 З 3 50 км ясно +3.7 +1.4 85 -0 +4 1014.8 1006.7 +1.7
00 24.05 З 5 50 км 1/1 600 м
[Cu hum]
+4.3 +2.3 87 -1 +5 1015.2 1007.1
03 24.05 СЗ 4 50 км 1/1 600 м
[Cu hum]
+5.5 +2.3 80 +2 +10 опасность
простуды
1015.6 1007.6

 

Местоположение метеостанции Мыс Алевина (Магаданская область, Россия): широта 58.83 долгота 151.30 высота над уровнем моря 65 м.

В архиве по умолчанию представлена погода на Мысе Алевина за последнюю неделю. Архивные данные за месяц целиком и за предыдущие месяцы, начиная с января 2011 года, Вы можете получить, выбрав интересующий диапазон дат из раскрывающегося списка и нажав кнопку "Ввод!".

Внимание! Время в таблицах - всемирное. Для получения местного времени необходимо прибавить поправку, которая на Мысе Алевина равна 11 ч.

Смотрите также архив погоды в соседних городах и на ближайших метеорологических станциях:

Погода в Оле (Магаданская область, Россия) (81 км)
Погода в Магадане (Магаданская область, Россия) (87 км)
Погода в Армани (Магаданская область, Россия) (115 км)
Погода на Мысе Братьев (Магаданская область, Россия) (119 км)
Погода на Остров Спафарьева (Магаданская область, Россия) (137 км)
Погода в Палатке (Магаданская область, Россия) (143 км)
Погода в Талоне (Магаданская область, Россия) (185 км)
Погода в Брохово (Магаданская область, Россия) (188 км)
Погода в Мадауне (Магаданская область, Россия) (200 км)
Погода в Талае (Магаданская область, Россия) (262 км)

Пояснения к столбцам:

Ветер - указаны скорость ветра в м/с - средняя за 10 мин, порывы в срок и между сроками (в фигурных скобках) и направление, откуда дует ветер: С - северный, СВ - северо-восточный, В - восточный, ЮВ - юго-восточный, Ю - южный, ЮЗ - юго-западный, З - западный, СЗ - северо-западный.
Видимость - горизонтальная дальность видимости в метрах или километрах. При видимости от 1 до 10 км при отсутствии осадков обычно наблюдается дымка, при ухудшении видимости до 1 км и менее - туман. В сухую погоду видимость может ухудшаться дымом, пылью или мглою.
Явления - указаны атмосферные явления, наблюдавшиеся в срок или в последний час перед сроком; фигурными скобками обозначены явления, наблюдавшиеся между сроками (за 1-3 часа до срока); квадратными скобками обозначены град или гололедные отложения с указанием их диаметра в мм.
Облачность - указаны через наклонную черту общая и нижняя облачность в баллах и высота нижней границы облаков в метрах; квадратными скобками обозначены формы облаков: Ci - перистые, Cs - перисто-слоистые, Cc - перисто-кучевые, Ac - высококучевые, As - высокослоистые, Sc - слоисто-кучевые, Ns - слоисто-дождевые, Cu - кучевые, Cb - кучево-дождевые. Подробнее классификацию облаков см. в Атласе облаков (PDF).
T - Температура воздуха - температура, измеренная на высоте 2 м над землей.
Td - Температура точки росы - температура, при понижении до которой содержащийся в воздухе водяной пар достигнет насыщения.
f - Относительная влажность воздуха - влажноcть воздуха, измеренная на высоте 2 м над землей.
Te - Эффективная температура - температура, которую ощущает одетый по сезону человек в тени. Характеристика душности погоды. При расчете учитывается влияние влажности воздуха и скорости ветра на теплоощущения человека.
Tes - Эффективная температура на солнце - температура, которую ощущает человек, с поправкой на солнечный нагрев. Характеристика знойности погоды. Зависит от высоты солнца над горизонтом, облачности и скорости ветра. Ночью, в пасмурную погоду, а также при ветре 12 м/с и более поправка равна нулю.
P - Атмосферное давление - приведенное к уровню моря атмосферное давление.
Po - Атмосферное давление - измеренное на уровне метеостанции атмосферное давление.
Tmin - Минимальная температура - минимум температуры воздуха на высоте 2 м над землей.
Tmax - Максимальная температура - максимум температуры воздуха на высоте 2 м над землей.
R - Количество осадков - Количество выпавших осадков за период времени, мм. При наведении курсора мыши на число - период времени, за который выпало указанное количество осадков.
R24 - Количество осадков - Количество выпавших осадков за 24 часа, мм.
S - Снежный покров - Высота снежного покрова, см. При наведении курсора мыши на число - состояние снежного покрова и степень покрытия местности в баллах.